TimeCST,TemperatureF,Dew PointF,Humidity,Sea Level PressureIn,VisibilityMPH,Wind Direction,Wind SpeedMPH,Gust SpeedMPH,PrecipitationIn,Events,Conditions,WindDirDegrees,DateUTC
12:00 AM,70,61,65,29.82,12,ENE,8.1,,,,,70,2012-11-05 06:00:00
12:00 AM,69.8,60.8,73,29.98,-9999.0,ENE,8.1,-,N/A,,Clear,70,2012-11-05 06:00:00
1:00 AM,68.0,62.6,83,29.97,-9999.0,ENE,4.6,-,N/A,,Clear,60,2012-11-05 07:00:00
2:00 AM,66.2,60.8,83,29.96,-9999.0,ENE,5.8,-,N/A,,Clear,60,2012-11-05 08:00:00
3:00 AM,65,60,80,29.79,12,ENE,3.5,,,,Clear,60,2012-11-05 09:00:00
3:00 AM,66.2,60.8,83,29.94,-9999.0,ENE,3.5,-,N/A,,Clear,60,2012-11-05 09:00:00
4:00 AM,66.2,60.8,83,29.94,-9999.0,NE,10.4,-,N/A,,Clear,50,2012-11-05 10:00:00
5:00 AM,66.2,59.0,78,29.95,-9999.0,NNE,10.4,-,N/A,,Clear,30,2012-11-05 11:00:00
6:00 AM,69,61,68,29.78,12,ENE,3.5,,,,Clear,60,2012-11-05 12:00:00
6:00 AM,68.0,60.8,78,29.96,-9999.0,ENE,9.2,-,N/A,,Clear,60,2012-11-05 12:00:00
7:00 AM,73.4,60.8,65,29.97,6.2,East,8.1,-,N/A,,Scattered Clouds,90,2012-11-05 13:00:00
8:00 AM,75.2,60.8,61,29.99,6.2,ESE,10.4,-,N/A,,Scattered Clouds,110,2012-11-05 14:00:00
9:00 AM,78.8,60.8,54,30.01,6.2,ESE,15.0,-,N/A,,Scattered Clouds,110,2012-11-05 15:00:00
10:00 AM,80.6,60.8,51,30.01,6.2,ESE,11.5,-,N/A,,Mostly Cloudy,110,2012-11-05 16:00:00
11:00 AM,80.6,60.8,51,30.00,6.2,East,11.5,-,N/A,,Scattered Clouds,90,2012-11-05 17:00:00
12:00 PM,83,61,37,29.80,12,East,9.2,,,,Partly Cloudy,100,2012-11-05 18:00:00
12:00 PM,82.4,60.8,48,29.97,6.2,East,9.2,-,N/A,,Scattered Clouds,100,2012-11-05 18:00:00
1:00 PM,84.2,66.2,55,29.94,6.2,SE,6.9,-,N/A,,Scattered Clouds,140,2012-11-05 19:00:00
2:00 PM,82.4,69.8,66,29.92,6.2,SW,9.2,-,N/A,,Scattered Clouds,220,2012-11-05 20:00:00
3:00 PM,79,69,64,29.76,12,WSW,11.5,,,,,250,2012-11-05 21:00:00
3:00 PM,78.8,69.8,74,29.92,6.2,WSW,11.5,-,N/A,,Scattered Clouds,250,2012-11-05 21:00:00
4:00 PM,77.0,68.0,74,29.93,6.2,WSW,10.4,-,N/A,,Mostly Cloudy,250,2012-11-05 22:00:00
5:00 PM,73.4,69.8,88,29.95,6.2,WSW,6.9,-,N/A,,Mostly Cloudy,240,2012-11-05 23:00:00
6:00 PM,72,69,88,29.82,3,West,4.6,,,,Mist,260,2012-11-06 00:00:00
6:00 PM,71.6,69.8,94,29.98,6.2,West,4.6,-,N/A,Fog,Patches of Fog,260,2012-11-06 00:00:00
7:00 PM,71.6,68.0,88,30.00,6.2,West,5.8,-,N/A,Fog-Rain,Light Rain,270,2012-11-06 01:00:00
8:00 PM,71.6,68.0,88,30.01,6.2,West,2.3,-,N/A,,Mostly Cloudy,280,2012-11-06 02:00:00
9:00 PM,71,67,84,29.82,9,Calm,Calm,,,Fog,Shallow Fog,,2012-11-06 03:00:00
9:00 PM,71.6,68.0,88,30.02,6.2,Calm,Calm,-,N/A,Fog,Patches of Fog,0,2012-11-06 03:00:00
10:00 PM,69.8,66.2,88,30.01,-9999.0,Calm,Calm,-,N/A,,Clear,0,2012-11-06 04:00:00
11:00 PM,69.8,64.4,83,30.00,-9999.0,ENE,3.5,-,N/A,,Clear,70,2012-11-06 05:00:00